Temperature
-2 -1 -2 -2 -2 -3 -2 -2 -2 -2 -2 -2 -3 -4 -4 -3 -4 -4 -4 -4 -4 -4 -3 -3 -3 -3 -3 -3 -3 -3 -3 -3 -3 -4 -4 -4 -4 -4 -4 -4 -4 -4 -4 -4
-3 -2 -2 -2 -2 -3 -3 -3 -3 -3 -3 -4 -4 -5 -5 -4 -4 -5 -5 -4 -4 -4 -4 -4 -4 -4 -4 -4 -4 -4 -4 -4 -4 -5 -5 -5 -5 -4 -4 -4 -4 -4 -4 -4
-3 -3 -3 -3 -4 -4 -4 -5 -5 -4 -4 -6 -6 -6 -6 -5 -5 -5 -5 -5 -5 -5 -5 -4 -4 -4 -4 -5 -5 -5 -5 -5 -5 -5 -5 -5 -5 -5 -5 -5 -5 -5 -5 -5
-4 -4 -3 -3 -5 -5 -5 -6 -6 -6 -6 -7 -6 -6 -6 -5 -6 -5 -5 -5 -5 -5 -5 -5 -5 -5 -5 -6 -6 -6 -6 -6 -6 -6 -6 -6 -6 -6 -6 -6 -6 -6 -6 -5
-4 -4 -4 -4 -5 -6 -6 -6 -7 -7 -7 -7 -7 -7 -6 -6 -6 -6 -6 -6 -6 -6 -6 -6 -6 -6 -6 -6 -6 -6 -6 -6 -6 -7 -7 -7 -6 -6 -6 -6 -6 -6 -6 -6
-5 -4 -4 -4 -6 -6 -6 -6 -7 -7 -8 -8 -8 -7 -7 -7 -7 -7 -7 -7 -7 -7 -7 -7 -7 -7 -7 -7 -7 -7 -7 -7 -7 -7 -7 -7 -7 -7 -7 -7 -7 -7 -7 -7
-6 -6 -6 -6 -7 -6 -5 -5 -7 -7 -7 -8 -8 -8 -8 -8 -8 -8 -7 -7 -7 -7 -7 -7 -7 -7 -7 -7 -7 -8 -8 -8 -8 -8 -8 -8 -8 -8 -8 -8 -8 -8 -8 -8
-7 -6 -5 -7 -8 -7 -7 -7 -7 -7 -8 -8 -8 -8 -8 -8 -8 -8 -8 -8 -8 -8 -8 -8 -8 -8 -8 -8 -8 -8 -8 -9 -9 -9 -9 -9 -8 -8 -8 -8 -9 -9 -9 -8
-7 -6 -7 -8 -8 -7 -7 -8 -8 -8 -8 -8 -9 -9 -9 -9 -9 -9 -9 -9 -9 -9 -8 -8 -8 -9 -9 -8 -9 -9 -9 -9 -9 -9 -9 -9 -9 -9 -9 -9 -9 -9 -9 -9
-8 -8 -8 -8 -8 -8 -8 -8 -8 -9 -9 -9 -9 -10 -10 -10 -10 -10 -9 -10 -9 -9 -9 -9 -9 -9 -9 -9 -9 -9 -9 -9 -9 -10 -9 -9 -9 -10 -10 -10 -10 -10 -10 -10
-9 -9 -9 -8 -9 -9 -9 -9 -9 -9 -10 -10 -10 -10 -10 -10 -10 -10 -10 -10 -10 -10 -10 -10 -10 -9 -10 -10 -10 -10 -10 -10 -10 -10 -10 -10 -10 -10 -10 -10 -10 -10 -10 -10
-9 -9 -10 -9 -9 -9 -10 -10 -10 -10 -10 -10 -10 -11 -11 -11 -11 -11 -11 -11 -10 -10 -10 -10 -10 -10 -10 -10 -10 -10 -10 -10 -10 -10 -10 -11 -11 -10 -10 -10 -10 -10 -10 -10
-9 -9 -10 -10 -10 -10 -10 -10 -11 -11 -11 -11 -11 -11 -11 -11 -11 -11 -11 -11 -11 -11 -11 -11 -10 -10 -10 -10 -10 -11 -11 -11 -11 -11 -11 -11 -11 -11 -11 -10 -10 -10 -10 -10
-10 -10 -11 -11 -11 -11 -11 -11 -11 -12 -12 -12 -12 -12 -12 -12 -12 -12 -12 -12 -12 -11 -11 -11 -11 -11 -11 -11 -11 -11 -11 -11 -11 -11 -11 -11 -11 -11 -11 -11 -11 -11 -10 -10
-11 -11 -11 -11 -12 -12 -12 -12 -12 -12 -12 -12 -12 -12 -12 -12 -12 -12 -12 -12 -12 -12 -12 -12 -12 -11 -11 -11 -11 -11 -11 -11 -11 -11 -11 -11 -11 -11 -11 -11 -11 -11 -11 -11
-12 -12 -12 -12 -12 -12 -13 -13 -13 -13 -13 -13 -13 -13 -13 -13 -13 -13 -13 -13 -13 -12 -12 -12 -12 -12 -12 -12 -12 -12 -12 -12 -12 -12 -12 -12 -12 -12 -12 -12 -12 -12 -11 -11
-13 -13 -13 -13 -13 -13 -13 -14 -14 -14 -14 -14 -14 -14 -14 -14 -13 -13 -13 -13 -13 -13 -13 -13 -13 -13 -13 -12 -12 -12 -12 -12 -12 -12 -12 -12 -12 -12 -12 -12 -12 -12 -12 -12
-13 -13 -13 -13 -14 -14 -14 -14 -14 -14 -14 -14 -14 -14 -14 -14 -14 -14 -14 -14 -14 -14 -14 -14 -14 -13 -13 -13 -13 -13 -13 -12 -12 -12 -12 -12 -13 -13 -13 -13 -13 -13 -12 -12
-13 -13 -14 -14 -14 -14 -14 -15 -15 -15 -15 -15 -15 -15 -15 -15 -15 -15 -15 -15 -14 -14 -14 -14 -14 -14 -13 -13 -13 -13 -13 -13 -13 -13 -13 -13 -13 -13 -13 -13 -13 -13 -13 -13
-14 -14 -14 -14 -15 -15 -15 -15 -15 -15 -15 -15 -15 -15 -15 -15 -15 -15 -15 -15 -15 -15 -15 -15 -15 -14 -14 -14 -14 -14 -14 -14 -13 -13 -14 -14 -14 -14 -14 -14 -14 -14 -14 -13
-14 -14 -15 -15 -15 -15 -15 -15 -15 -16 -16 -16 -16 -16 -16 -16 -16 -16 -16 -16 -15 -15 -15 -15 -15 -15 -15 -15 -15 -14 -14 -14 -14 -14 -14 -14 -14 -14 -14 -14 -14 -14 -14 -14
-15 -15 -15 -15 -15 -15 -15 -16 -16 -16 -16 -16 -16 -16 -16 -16 -16 -16 -16 -16 -16 -16 -16 -16 -16 -15 -15 -15 -15 -15 -15 -15 -14 -14 -15 -15 -15 -15 -15 -15 -15 -15 -14 -14
-15 -15 -15 -15 -16 -16 -16 -16 -16 -16 -16 -16 -16 -16 -16 -16 -17 -17 -17 -16 -16 -16 -16 -16 -16 -16 -16 -15 -15 -15 -15 -15 -15 -15 -15 -15 -15 -15 -15 -15 -15 -15 -15 -14
-15 -15 -16 -16 -16 -16 -16 -16 -16 -16 -16 -16 -17 -17 -17 -17 -17 -17 -17 -17 -17 -17 -17 -16 -16 -16 -16 -16 -16 -15 -15 -15 -15 -15 -15 -15 -15 -15 -15 -15 -15 -15 -15 -15
-15 -16 -16 -16 -16 -16 -16 -16 -16 -16 -16 -17 -17 -17 -17 -17 -17 -17 -17 -17 -17 -17 -17 -17 -17 -17 -16 -16 -16 -16 -16 -16 -15 -15 -15 -15 -15 -15 -15 -15 -15 -15 -15 -15
-16 -16 -16 -16 -17 -17 -17 -17 -17 -17 -17 -17 -17 -17 -17 -18 -18 -18 -18 -18 -17 -17 -17 -17 -17 -17 -17 -17 -17 -16 -16 -16 -16 -16 -15 -15 -15 -15 -15 -15 -15 -15 -15 -15
-16 -16 -16 -16 -17 -17 -17 -17 -17 -17 -17 -18 -18 -18 -18 -18 -18 -18 -18 -18 -18 -18 -18 -18 -18 -17 -17 -17 -17 -17 -16 -16 -16 -16 -16 -16 -16 -15 -15 -15 -15 -15 -15 -15
Wind_Speed
6 5 3 4 6 5 8 8 8 8 9 10 8 7 6 5 4 4 5 5 4 5 5 5 5 4 4 3 3 3 3 4 5 5 5 5 5 6 6 6 7 6 6 6
5 5 4 6 7 6 8 8 9 9 11 8 7 5 5 5 5 5 6 6 6 6 6 6 5 5 5 4 4 3 4 5 5 5 5 5 5 6 6 6 6 6 7 7
5 5 4 5 5 5 3 4 4 8 9 7 7 7 7 6 6 7 7 7 6 6 6 6 6 6 6 5 4 4 5 5 5 5 6 6 6 6 6 7 6 7 7 7
2 2 4 5 1 2 4 4 4 5 6 6 7 7 6 5 6 7 6 6 7 7 7 6 6 5 5 5 4 5 5 5 5 5 6 6 5 6 6 6 6 6 7 7
1 3 6 5 2 1 3 6 3 4 7 7 7 5 5 4 4 5 6 7 7 7 7 6 6 5 4 5 5 5 5 6 5 5 6 6 6 7 6 5 6 6 6 7
2 3 5 5 4 4 1 5 3 3 6 7 5 5 7 6 7 7 7 6 6 6 6 6 6 5 4 5 5 6 6 6 6 5 6 6 7 7 5 5 6 6 6 6
4 5 6 4 5 2 1 6 6 5 6 5 4 6 7 8 8 7 7 7 7 6 6 6 6 4 5 6 7 7 6 5 5 5 6 6 6 5 5 5 5 5 6 6
2 4 7 2 2 1 5 5 5 5 5 5 6 7 8 8 8 8 8 8 7 7 7 6 5 4 6 7 7 5 5 5 5 5 5 5 5 5 5 5 6 6 6 6
5 6 3 1 2 4 4 5 6 6 6 5 6 7 8 8 7 8 8 8 7 6 8 7 5 4 6 6 5 4 4 5 5 5 5 5 5 5 5 5 5 6 6 6
4 6 5 4 4 5 5 5 6 6 6 5 6 7 7 7 8 8 8 8 7 7 8 8 6 6 5 6 4 4 4 5 4 4 4 4 4 4 5 5 6 6 6 6
5 5 6 5 5 6 7 6 6 6 5 5 5 6 7 7 8 8 8 8 7 7 8 8 8 7 6 5 4 4 4 4 4 4 4 4 4 4 5 6 7 7 6 6
6 5 5 8 6 5 5 6 6 6 6 6 5 6 7 7 7 8 8 8 8 8 8 8 7 7 7 5 4 4 4 4 3 3 3 3 4 4 6 6 8 9 9 8
5 5 5 6 5 5 5 6 6 5 5 6 6 5 6 7 7 7 8 8 9 9 9 8 8 7 7 6 4 4 4 4 3 3 3 3 4 4 4 5 6 7 8 8
4 4 4 4 6 6 6 5 5 5 5 6 6 6 6 7 7 8 8 9 9 9 9 8 8 8 8 6 5 5 5 5 4 3 3 3 3 3 3 3 4 4 6 7
5 4 4 5 5 5 5 5 5 6 6 7 6 6 7 7 8 9 8 8 8 8 8 8 8 9 8 6 5 5 4 3 3 3 3 3 3 2 3 3 3 4 4 5
6 5 4 4 5 6 6 6 6 7 7 7 7 8 8 8 8 8 8 7 8 9 9 9 9 9 9 7 5 4 4 5 4 3 2 2 2 2 3 3 3 4 4 4
5 5 6 7 7 7 6 6 6 7 7 8 8 8 8 7 8 8 8 8 7 8 9 9 9 9 8 7 5 4 4 4 5 3 2 2 2 2 2 2 3 3 4 5
5 6 6 6 6 7 7 7 6 7 7 8 8 7 7 7 8 9 9 9 8 9 9 8 9 9 8 7 6 4 4 3 3 3 2 2 2 2 2 2 3 3 3 4
6 5 5 5 5 5 6 6 6 6 7 6 6 7 7 7 7 8 8 8 8 9 9 9 12 9 8 8 8 4 4 3 3 3 2 3 3 2 2 2 3 3 3 4
6 6 5 5 5 5 5 6 6 6 6 6 6 6 7 8 8 8 8 7 6 7 9 10 9 8 8 8 8 4 4 3 3 3 2 2 2 2 2 3 3 3 3 3
6 5 5 5 6 6 5 5 5 6 7 6 6 6 7 8 7 7 7 8 8 9 9 11 8 7 7 7 7 4 3 3 3 3 2 2 2 3 3 3 3 3 3 3
5 5 5 6 6 6 6 5 5 6 6 6 6 6 7 7 7 7 6 6 8 12 9 6 6 9 10 8 4 4 3 3 3 2 2 2 2 3 3 3 3 4 4 4
5 5 5 5 6 6 6 5 5 5 6 6 7 7 7 6 6 6 7 7 7 11 9 6 10 13 12 6 4 4 4 4 3 3 3 3 3 3 3 3 4 4 4 4
4 5 5 5 5 5 6 6 6 5 5 6 6 6 6 6 6 5 5 10 13 13 8 10 14 13 11 5 4 4 4 4 4 3 3 3 3 3 3 3 4 4 4 4
4 4 4 4 5 5 6 6 6 6 6 5 6 6 5 4 5 6 6 7 12 12 8 10 13 12 7 5 5 5 4 4 4 4 3 3 3 3 4 4 4 4 4 4
4 4 4 4 4 4 4 5 5 5 5 6 6 6 5 5 6 6 6 7 9 10 8 6 7 7 5 5 5 5 4 5 5 4 4 4 4 4 4 4 5 4 4 4
4 4 4 4 4 4 4 4 5 5 5 6 6 6 6 6 6 6 6 6 6 6 6 6 6 5 5 5 5 5 4 4 4 4 4 4 4 4 4 5 5 5 5 5
Wind_Direction
254 262 247 253 262 237 222 225 232 255 260 285 292 290 290 290 300 308 312 314 312 309 307 308 307 299 285 282 282 272 256 254 253 251 244 239 235 231 231 229 228 230 234 237
272 266 270 283 288 262 250 246 247 264 274 291 304 313 307 295 288 292 297 296 297 300 303 297 293 293 290 283 279 267 256 257 259 253 248 243 240 234 230 227 228 230 232 234
262 286 321 286 271 235 240 243 234 252 268 301 312 307 293 291 293 288 286 287 290 295 292 289 284 280 274 273 273 267 263 262 258 249 247 246 244 240 235 229 228 232 234 233
272 2 253 242 213 215 224 257 263 276 292 300 290 291 289 285 284 288 290 293 297 299 299 296 291 286 282 280 275 271 269 267 260 250 248 248 245 243 241 236 229 231 235 235
201 251 273 292 306 325 258 279 292 281 301 313 316 313 305 315 312 291 291 294 296 295 295 295 293 290 286 282 276 273 271 271 266 254 250 247 245 244 242 237 237 236 237 234
186 222 248 269 294 305 257 279 313 307 299 310 333 314 300 324 326 315 309 305 303 303 302 297 293 290 283 277 274 271 272 274 272 262 252 245 245 245 245 238 238 239 243 239
219 232 260 282 313 3 184 276 313 304 296 298 284 272 294 315 321 320 316 313 311 308 303 295 294 291 279 275 270 271 276 275 271 266 257 250 250 245 238 236 237 238 243 245
203 226 261 313 41 195 265 305 315 310 302 294 293 301 309 314 317 320 319 316 314 311 307 306 305 294 285 275 274 276 273 270 269 268 264 259 248 245 235 228 232 237 240 245
205 224 263 254 235 283 304 304 306 308 304 301 300 305 311 314 316 317 315 313 312 308 308 312 312 299 288 287 285 280 273 269 271 273 269 262 250 242 238 229 230 235 234 239
254 262 279 283 301 315 313 300 301 304 306 307 299 303 310 313 315 316 316 316 316 315 313 314 316 310 293 293 291 280 274 274 273 272 272 265 256 241 236 232 232 235 235 239
262 284 308 289 299 306 314 320 322 322 317 312 304 306 309 310 312 314 317 318 317 312 308 307 313 312 308 303 294 284 278 273 272 269 266 266 264 251 247 243 238 239 239 238
259 272 271 287 299 311 313 314 316 319 322 324 314 305 309 310 312 313 315 318 319 316 310 308 311 311 311 308 295 281 280 276 269 264 261 261 268 278 270 263 261 258 255 253
270 297 286 290 306 316 307 309 315 316 311 315 317 310 309 310 314 315 315 317 316 314 312 312 312 311 312 311 303 285 273 275 269 260 258 261 263 264 279 284 273 267 265 263
302 313 301 298 305 313 313 313 316 317 316 315 313 315 315 313 315 316 315 314 314 315 316 316 316 313 311 313 307 297 287 280 276 260 261 264 264 261 262 268 279 284 279 273
318 306 278 293 307 317 322 324 325 324 323 323 323 321 321 318 314 312 313 317 320 321 320 321 319 317 318 313 305 299 293 285 276 266 263 267 269 266 266 266 273 286 297 289
318 318 309 309 310 318 324 325 322 318 319 319 321 322 319 314 311 313 319 324 325 323 321 320 318 318 320 317 309 304 294 292 298 285 272 273 270 269 272 275 280 280 279 287
325 322 320 314 309 310 312 313 310 309 312 314 315 317 320 322 322 323 325 326 320 313 315 316 316 319 322 324 316 308 304 305 310 308 290 275 269 265 268 274 280 285 287 288
298 293 294 295 299 305 311 315 314 314 313 312 316 320 322 323 320 318 320 323 324 322 321 321 320 323 325 325 319 313 315 315 311 305 302 293 291 282 282 283 286 290 300 303
328 324 321 317 311 309 311 315 316 316 317 318 319 319 317 316 315 315 320 325 326 325 326 326 328 332 326 322 324 321 321 319 317 313 307 300 308 307 296 293 293 294 296 303
333 333 332 331 328 323 318 319 319 321 322 321 322 323 323 321 321 322 323 319 313 310 313 320 325 324 320 318 324 325 322 319 315 314 313 308 306 305 303 299 300 300 300 302
328 329 331 331 328 325 321 318 318 318 321 323 321 316 315 318 322 323 324 321 321 320 322 326 330 323 319 324 326 323 318 315 312 309 309 310 310 309 309 309 308 305 304 307
324 326 328 328 328 325 323 320 317 317 320 321 320 318 319 321 323 321 315 308 315 324 330 325 321 322 328 331 333 328 322 316 315 316 313 310 307 306 306 308 309 309 310 312
322 322 323 322 320 317 320 323 322 319 317 317 319 318 316 314 316 319 321 321 320 324 331 323 325 330 335 341 338 331 325 321 318 314 312 308 302 299 302 306 308 309 309 310
322 322 320 320 323 325 325 325 325 324 320 316 317 315 314 317 318 313 306 319 328 328 330 327 334 337 342 348 338 334 329 323 320 317 315 312 308 308 307 308 308 308 307 306
321 319 322 327 327 321 319 325 330 331 329 328 327 327 324 314 310 315 316 319 326 331 331 333 337 340 345 339 335 330 328 324 319 317 315 313 311 311 310 309 307 306 306 304
321 318 314 312 315 319 325 329 330 329 329 329 329 331 329 325 319 318 320 324 326 334 339 338 337 336 338 334 331 328 325 322 323 327 326 319 315 312 311 311 307 304 301 298
328 330 330 332 332 330 328 326 324 324 325 324 325 329 330 331 330 332 331 332 334 338 339 340 341 342 339 333 329 328 327 323 319 318 318 314 311 308 307 304 303 300 297 296
Height
1481 1479 1480 1480 1479 1480 1479 1477 1476 1469 1468 1463 1462 1461 1459 1457 1456 1455 1453 1451 1450 1448 1446 1445 1443 1442 1441 1441 1440 1439 1439 1438 1438 1438 1438 1438 1438 1439 1440 1441 1442 1443 1444 1444
1482 1478 1478 1477 1475 1475 1475 1474 1472 1469 1466 1464 1461 1459 1457 1456 1454 1452 1450 1449 1447 1445 1442 1441 1439 1438 1437 1436 1435 1434 1433 1433 1432 1432 1432 1432 1432 1433 1434 1434 1435 1436 1437 1438
1481 1478 1476 1476 1474 1474 1474 1474 1472 1469 1465 1462 1460 1457 1456 1454 1452 1450 1447 1446 1444 1441 1439 1437 1435 1434 1432 1431 1430 1429 1428 1427 1427 1426 1426 1426 1427 1427 1427 1428 1429 1430 1431 1432
1483 1482 1482 1473 1471 1471 1471 1470 1469 1466 1463 1460 1459 1455 1453 1451 1449 1447 1445 1443 1440 1438 1435 1433 1431 1429 1428 1427 1426 1424 1423 1422 1421 1421 1420 1420 1421 1421 1421 1422 1423 1423 1424 1425
1486 1484 1478 1472 1470 1471 1471 1466 1465 1464 1461 1458 1455 1452 1449 1448 1447 1445 1442 1440 1437 1434 1431 1428 1426 1425 1423 1422 1421 1419 1418 1417 1416 1416 1415 1415 1414 1415 1415 1416 1416 1417 1418 1419
1486 1483 1478 1472 1470 1467 1469 1466 1462 1461 1459 1456 1454 1453 1447 1445 1444 1441 1439 1436 1433 1430 1427 1424 1422 1420 1418 1416 1415 1414 1413 1412 1411 1410 1410 1409 1409 1409 1410 1410 1410 1411 1412 1413
1485 1484 1478 1472 1468 1467 1471 1465 1461 1459 1457 1455 1454 1453 1448 1443 1441 1438 1435 1432 1429 1426 1423 1420 1418 1415 1413 1411 1409 1408 1408 1407 1406 1405 1405 1404 1404 1404 1404 1405 1405 1405 1406 1407
1486 1484 1477 1469 1469 1470 1467 1461 1459 1457 1455 1453 1450 1447 1444 1441 1437 1435 1432 1428 1425 1422 1419 1416 1414 1411 1408 1405 1405 1404 1403 1402 1401 1400 1400 1399 1399 1399 1399 1399 1399 1400 1400 1400
1478 1475 1469 1467 1466 1465 1463 1460 1457 1455 1452 1450 1447 1444 1441 1438 1434 1431 1428 1425 1422 1419 1415 1412 1410 1407 1404 1402 1401 1399 1398 1397 1396 1395 1395 1394 1394 1393 1394 1394 1394 1394 1394 1394
1475 1469 1467 1465 1463 1462 1460 1457 1455 1452 1450 1447 1444 1441 1438 1435 1432 1428 1425 1422 1419 1415 1412 1409 1406 1404 1401 1399 1397 1395 1394 1392 1392 1391 1390 1389 1389 1389 1388 1388 1388 1389 1389 1389
1472 1468 1465 1461 1460 1459 1456 1454 1451 1449 1447 1444 1442 1439 1436 1432 1429 1426 1423 1419 1416 1412 1409 1406 1403 1400 1398 1396 1394 1392 1390 1389 1387 1387 1386 1385 1384 1384 1384 1383 1384 1384 1384 1385
1469 1465 1465 1460 1457 1456 1453 1450 1448 1445 1442 1441 1439 1436 1433 1429 1426 1423 1420 1416 1413 1409 1406 1402 1400 1397 1394 1392 1390 1388 1386 1385 1383 1382 1382 1381 1380 1379 1379 1380 1380 1380 1380 1380
1465 1462 1461 1458 1455 1453 1450 1448 1445 1443 1440 1438 1435 1433 1430 1427 1424 1421 1417 1414 1410 1406 1403 1399 1396 1393 1391 1389 1386 1384 1382 1381 1380 1379 1378 1377 1376 1375 1374 1374 1374 1375 1375 1375
1462 1460 1457 1454 1452 1450 1447 1445 1442 1440 1438 1435 1432 1430 1427 1424 1421 1417 1414 1411 1407 1404 1400 1396 1393 1390 1387 1385 1383 1381 1379 1377 1376 1375 1374 1373 1373 1372 1371 1370 1369 1368 1369 1370
1459 1457 1455 1452 1449 1447 1444 1442 1439 1436 1434 1432 1429 1427 1424 1420 1417 1414 1411 1408 1404 1401 1397 1394 1390 1387 1384 1381 1379 1377 1375 1374 1373 1372 1371 1370 1369 1369 1368 1367 1366 1365 1365 1365
1456 1454 1451 1449 1446 1444 1441 1439 1436 1433 1431 1428 1426 1423 1421 1418 1415 1411 1408 1405 1402 1398 1394 1391 1387 1384 1380 1378 1376 1374 1373 1371 1370 1369 1368 1367 1366 1365 1365 1364 1363 1362 1361 1361
1454 1450 1448 1445 1443 1441 1439 1437 1434 1431 1429 1426 1423 1420 1418 1415 1411 1408 1405 1402 1399 1396 1392 1389 1385 1381 1378 1376 1373 1372 1370 1369 1367 1366 1365 1364 1363 1362 1362 1361 1360 1359 1358 1358
1453 1450 1448 1445 1442 1439 1436 1434 1431 1429 1426 1423 1420 1418 1415 1412 1408 1405 1402 1399 1395 1392 1389 1386 1383 1379 1376 1374 1371 1369 1368 1366 1365 1363 1362 1361 1360 1359 1359 1358 1357 1356 1355 1354
1450 1447 1445 1442 1440 1437 1434 1431 1429 1426 1423 1421 1418 1415 1412 1409 1406 1403 1400 1396 1393 1389 1386 1384 1380 1377 1374 1372 1370 1368 1366 1364 1363 1361 1360 1359 1358 1357 1356 1355 1354 1353 1352 1351
1447 1445 1442 1440 1437 1435 1432 1429 1427 1424 1421 1419 1416 1413 1410 1407 1404 1401 1398 1395 1392 1388 1385 1382 1378 1375 1372 1370 1368 1366 1364 1362 1361 1359 1358 1357 1356 1354 1353 1352 1351 1350 1349 1348
1445 1442 1440 1437 1435 1433 1430 1427 1425 1422 1419 1417 1414 1411 1408 1405 1402 1399 1395 1392 1389 1386 1383 1380 1377 1373 1371 1368 1366 1364 1362 1360 1359 1357 1356 1355 1354 1352 1351 1350 1349 1348 1347 1345
1443 1440 1438 1436 1433 1431 1428 1426 1423 1420 1417 1415 1412 1409 1406 1403 1400 1397 1394 1391 1388 1384 1381 1378 1375 1372 1369 1366 1364 1362 1360 1359 1357 1356 1355 1353 1352 1351 1349 1348 1347 1345 1344 1343
1441 1439 1437 1434 1432 1429 1426 1424 1421 1418 1416 1413 1410 1407 1404 1401 1398 1395 1391 1389 1386 1382 1379 1376 1373 1370 1367 1364 1362 1360 1358 1357 1356 1355 1353 1352 1351 1349 1348 1346 1345 1344 1342 1341
1440 1437 1435 1433 1430 1427 1424 1422 1419 1417 1414 1411 1409 1406 1403 1399 1396 1393 1390 1387 1384 1380 1377 1374 1371 1368 1365 1362 1360 1358 1357 1356 1355 1353 1352 1351 1349 1348 1346 1345 1343 1342 1341 1339
1438 1435 1433 1430 1428 1425 1423 1420 1418 1415 1412 1409 1407 1404 1401 1398 1395 1391 1388 1385 1382 1378 1375 1372 1369 1366 1363 1361 1359 1357 1356 1355 1354 1352 1351 1349 1348 1346 1345 1343 1342 1340 1339 1337
1436 1434 1432 1429 1427 1425 1422 1419 1416 1414 1411 1407 1404 1402 1399 1396 1393 1390 1386 1383 1380 1377 1374 1371 1368 1365 1362 1360 1358 1356 1355 1353 1352 1351 1349 1348 1346 1345 1343 1342 1340 1339 1337 1335
1434 1432 1430 1427 1425 1423 1421 1418 1415 1412 1410 1406 1403 1400 1397 1394 1391 1388 1385 1382 1379 1376 1373 1370 1367 1364 1362 1359 1357 1356 1354 1352 1351 1350 1348 1347 1345 1343 1342 1340 1338 1337 1335 1333